Wind_Speed
35 39 43 47 50 52 52 50 52 53 51 47 41 35 31 29 32 35 32 32 34 34 35 34 33 34 36 35 32 25 20 20 20 17 18 20 18 16 12 8 8 10 12 14 14 14 15 16 16 15 14 14 14 15 15 15 15 15 16 17 19 20 21
34 38 41 46 52 51 49 49 50 51 51 49 43 38 35 33 35 35 33 33 31 33 40 39 36 35 33 33 33 26 21 23 22 19 20 21 18 17 14 11 10 11 12 13 12 11 11 13 13 12 12 12 12 13 13 13 14 14 16 17 18 19 19
35 38 40 44 51 52 50 47 46 50 56 55 47 44 42 38 38 36 31 31 33 36 38 34 36 37 32 30 31 27 23 25 26 28 26 24 22 20 16 14 12 11 13 14 13 11 10 12 13 12 12 12 11 12 12 13 14 15 16 17 17 17 18
37 37 39 42 47 52 53 50 44 44 53 55 50 51 50 41 37 37 33 32 34 35 33 30 31 31 31 32 30 27 28 25 23 28 28 25 23 20 16 18 17 14 13 14 14 14 13 13 14 14 14 13 11 12 12 13 14 16 17 17 17 17 17
40 37 36 40 43 48 53 56 51 42 43 49 50 51 51 44 40 36 34 36 36 30 26 28 30 27 28 30 27 29 31 23 19 25 27 25 22 19 20 21 21 19 17 15 16 16 16 16 16 16 15 14 13 13 12 13 15 16 17 17 17 17 17
40 37 33 35 39 43 48 54 57 50 41 41 46 47 45 46 48 42 34 33 34 27 24 28 33 29 27 25 24 28 26 23 26 24 22 23 24 22 23 23 23 24 22 20 18 17 18 19 17 16 16 15 14 13 13 14 15 15 17 17 17 18 17
33 35 34 34 35 39 41 45 52 55 49 42 43 49 48 47 49 47 39 34 30 24 22 26 31 30 28 27 28 32 29 26 26 20 19 27 26 24 25 24 23 25 25 25 24 21 20 20 19 19 18 17 15 15 15 15 15 16 17 18 18 19 18
28 30 34 33 33 38 40 41 47 52 54 51 51 52 50 46 47 46 44 42 38 30 25 23 23 25 26 30 34 37 35 30 25 20 23 30 25 26 27 24 24 26 27 27 26 23 21 21 21 21 21 19 18 17 17 17 17 17 17 17 17 18 18
32 32 36 36 36 39 42 46 49 50 50 54 58 55 47 48 52 47 43 45 43 38 34 29 23 26 27 29 36 38 36 35 31 25 27 27 25 29 29 25 26 27 26 25 24 21 20 20 21 22 23 22 21 20 19 18 18 19 17 15 16 17 18
39 38 39 39 37 38 40 45 48 46 45 50 58 57 52 55 59 52 47 46 39 34 37 35 31 34 35 31 34 37 37 37 35 32 31 26 26 30 28 26 27 28 26 24 23 21 19 19 22 23 24 24 23 22 21 20 19 18 17 16 16 18 20
40 37 35 36 35 32 34 41 43 43 43 44 47 52 56 58 58 56 57 55 44 33 31 32 34 39 40 36 37 38 37 36 38 41 40 33 29 31 29 28 29 28 27 25 24 24 21 20 23 24 25 25 24 23 23 22 20 18 17 17 17 19 21
37 35 32 35 36 30 28 35 39 41 42 41 41 46 53 55 54 57 59 58 55 48 36 29 32 39 42 39 40 40 36 36 41 44 41 37 35 33 32 31 31 30 29 27 26 28 25 23 23 24 25 25 25 25 25 24 22 19 18 18 18 20 20
36 36 35 35 33 29 29 32 34 36 39 42 43 45 50 52 52 56 58 54 57 61 52 40 35 36 39 37 38 41 38 38 40 40 37 37 38 37 36 35 33 32 31 29 29 29 27 26 25 25 26 26 26 25 25 25 23 20 19 19 18 19 19
39 38 36 36 32 28 30 32 30 30 34 38 43 45 46 49 51 55 58 56 55 57 57 53 46 38 32 32 34 40 42 41 38 36 37 37 38 41 41 38 35 34 32 31 31 30 29 28 27 27 27 26 25 25 25 26 24 21 19 18 18 18 17
42 38 35 38 39 34 32 32 30 30 32 34 37 41 43 45 48 52 54 57 58 54 53 58 57 50 42 35 32 35 40 42 41 40 41 39 39 42 43 40 38 35 33 33 32 31 30 29 29 27 26 25 25 25 26 25 24 21 19 18 18 18 17
42 39 36 37 39 38 39 38 34 33 34 33 32 37 42 44 47 51 52 55 59 58 54 56 61 61 59 55 48 44 43 42 43 45 44 40 39 41 42 42 41 37 34 34 32 31 31 31 30 27 26 25 24 24 24 23 22 21 19 19 20 19 19
41 38 37 34 34 38 42 42 38 37 37 34 32 35 38 40 41 44 50 55 56 56 55 57 61 63 64 62 59 57 55 49 46 45 43 39 38 40 41 43 43 39 35 33 32 31 32 32 31 29 26 24 23 23 22 21 20 20 19 20 21 22 22
42 38 36 33 35 39 39 35 35 38 39 37 36 36 36 37 37 37 40 44 45 46 50 55 58 60 61 60 56 56 58 58 54 49 44 40 39 41 43 43 43 40 35 32 32 31 32 33 32 30 27 25 25 24 23 21 20 19 18 19 20 23 24
43 40 38 37 39 39 35 30 29 32 37 39 40 40 38 38 38 36 35 35 35 37 43 47 49 53 57 57 54 52 53 56 58 54 47 41 40 43 45 44 42 38 32 30 31 31 32 33 33 32 30 28 28 26 23 22 21 20 19 19 20 23 25
43 41 41 41 40 36 33 31 30 32 37 41 44 44 41 38 37 38 38 37 34 33 35 38 40 45 50 50 49 51 50 50 54 56 50 44 42 44 45 44 40 34 30 30 31 31 33 35 34 34 32 31 29 27 25 25 24 23 23 22 23 25 27
44 41 41 39 38 38 36 35 37 39 38 38 42 42 37 34 37 38 37 36 36 34 33 35 39 42 44 43 44 49 49 47 50 54 52 49 48 48 48 44 38 33 32 33 33 33 35 36 36 35 34 32 30 29 28 27 26 26 26 26 26 28 30
44 42 41 41 41 42 40 39 41 41 37 36 38 37 33 31 35 39 38 36 38 37 35 37 40 41 41 41 42 46 46 44 47 49 47 47 47 46 46 44 39 34 34 36 35 35 36 37 38 37 35 34 32 31 31 29 28 29 29 29 30 30 32
47 45 44 44 43 43 42 40 40 40 38 36 33 32 32 31 34 40 41 39 39 38 37 38 39 39 41 41 39 40 41 41 44 45 42 42 42 41 42 44 41 37 37 38 38 38 38 39 39 37 37 36 34 33 34 33 32 32 32 32 33 33 35
46 45 44 43 42 41 40 40 41 41 41 38 33 32 33 33 33 37 39 37 36 36 36 37 37 38 40 39 35 32 33 36 42 43 40 38 39 41 43 44 43 40 40 40 40 40 40 40 39 37 37 36 36 36 37 36 35 35 35 35 36 37 37
46 45 42 40 41 41 39 38 40 40 39 37 34 32 32 32 31 32 35 36 35 34 34 36 35 34 34 34 32 31 32 36 40 39 36 35 37 41 44 46 46 44 42 42 42 42 42 41 39 37 37 37 38 39 39 39 39 39 38 38 39 40 41
53 49 45 42 42 42 39 38 39 37 35 35 34 30 28 29 30 30 31 34 35 33 34 35 33 32 31 31 33 36 38 39 36 33 32 33 35 40 44 46 48 47 44 44 44 44 43 42 41 40 40 40 40 40 41 42 43 41 40 41 42 43 44
55 54 51 48 46 42 39 39 39 36 33 32 31 29 29 30 30 29 29 31 33 33 33 32 30 30 31 32 32 35 38 38 34 31 31 32 35 40 43 46 49 49 48 46 45 45 45 44 43 43 42 42 43 43 43 44 44 43 43 45 47 48 48
53 54 53 51 48 45 43 41 38 36 34 32 30 32 34 34 32 30 29 30 31 33 34 33 31 30 31 29 27 28 31 32 31 32 32 32 35 38 41 46 51 51 49 47 46 46 46 45 44 44 44 43 43 43 43 44 44 45 46 49 51 52 49
52 51 51 52 50 48 47 43 38 37 36 33 33 36 37 36 34 31 31 31 30 32 35 35 32 31 31 29 26 25 26 28 31 33 34 33 33 35 39 44 49 50 48 46 46 46 45 44 44 44 43 44 44 43 44 44 45 47 49 51 55 54 47
51 50 51 51 49 47 46 42 39 40 38 34 34 37 38 37 35 32 31 31 30 32 36 35 32 31 32 31 29 28 27 28 32 36 37 35 34 35 36 39 43 46 47 46 46 46 45 44 44 44 44 44 44 44 45 46 48 51 53 54 55 53 45
51 50 51 51 49 47 46 42 38 37 36 34 35 38 39 39 36 32 31 31 31 32 35 34 32 32 32 32 32 31 29 30 33 36 37 37 35 35 36 37 40 44 46 47 47 47 46 46 45 44 45 45 45 46 48 50 52 55 54 54 55 52 44
53 51 51 50 48 47 47 43 39 35 34 34 35 38 40 39 36 33 33 32 32 34 35 34 33 33 33 32 31 30 30 30 33 35 36 35 34 35 36 38 40 43 46 47 47 47 47 46 45 45 46 47 47 48 50 51 53 55 55 57 57 51 42
50 50 51 50 48 47 47 45 42 38 35 33 33 36 39 38 36 36 35 33 33 35 35 33 32 33 33 32 31 31 31 31 33 35 36 36 36 37 37 38 40 43 45 46 46 47 46 45 45 46 47 48 49 50 50 50 52 54 56 57 54 46 40
46 46 48 49 48 47 44 42 41 39 35 33 33 35 37 37 36 36 35 33 32 32 32 32 31 32 34 34 34 34 35 34 34 35 36 37 37 38 39 40 41 43 44 45 46 47 47 47 48 48 48 49 50 50 50 50 50 49 49 49 47 43 41
43 41 40 42 42 41 39 38 39 38 36 35 35 33 32 34 35 36 36 36 35 33 32 32 32 33 36 37 37 38 39 37 37 37 38 39 39 40 41 43 44 45 46 48 48 49 49 49 48 47 47 48 48 49 49 49 47 45 43 43 43 44 44
39 36 35 35 34 33 34 35 36 36 36 36 33 30 29 32 34 36 37 37 35 35 34 34 34 36 38 40 41 42 42 40 39 38 39 40 41 42 44 45 47 48 48 48 47 48 48 48 48 47 47 46 46 47 47 46 46 45 43 42 43 46 46
40 35 32 31 29 29 31 32 32 33 34 34 30 27 29 32 34 36 38 37 34 33 35 36 37 39 41 43 45 46 46 44 42 43 44 43 42 43 44 45 46 47 47 45 44 44 45 45 46 47 47 46 46 46 46 47 47 47 46 45 47 48 48
Wind_Direction
239 230 227 228 226 228 232 230 224 226 230 226 222 227 231 231 235 237 236 242 249 244 234 232 235 230 227 235 237 227 224 232 231 227 232 239 241 246 255 261 263 264 259 260 268 271 266 259 255 253 250 248 248 249 251 254 255 256 256 256 256 257 259
242 235 226 225 227 225 228 231 229 228 229 226 224 227 229 230 233 236 235 236 240 243 240 236 237 234 228 234 238 229 222 225 234 248 248 243 243 240 244 257 259 256 255 260 269 276 274 267 259 256 256 256 259 263 263 262 260 258 256 256 256 258 259
242 240 231 225 227 224 221 227 231 229 229 226 222 224 226 227 232 234 234 235 234 239 244 242 241 239 229 228 234 230 222 225 245 258 247 237 236 230 239 259 259 254 253 255 263 268 268 270 268 265 264 266 270 272 270 266 262 259 258 259 259 258 258
243 242 237 227 227 226 221 220 224 229 232 229 224 225 224 221 229 235 233 233 232 235 244 251 252 243 229 225 227 232 234 233 250 259 246 235 233 227 233 253 260 261 254 249 252 258 264 270 272 270 269 273 277 273 270 266 261 259 260 260 259 258 258
247 243 240 232 227 230 226 219 217 221 229 229 225 228 231 227 226 230 233 237 235 230 232 247 251 239 229 229 229 239 246 234 233 254 251 234 226 225 230 240 252 260 258 251 245 246 256 262 267 273 275 278 280 276 273 268 264 264 263 262 261 261 262
249 245 240 236 230 231 233 229 223 219 221 225 224 225 229 231 229 225 226 236 240 232 223 234 242 236 229 230 223 229 235 216 210 233 252 238 220 217 226 231 241 251 255 256 249 244 250 258 266 274 277 281 284 282 279 273 271 271 267 264 263 263 265
243 249 245 240 232 229 230 234 231 224 219 220 221 222 223 228 232 228 225 231 233 225 218 231 248 249 236 227 220 216 215 210 206 210 241 248 227 209 219 226 230 241 248 253 255 252 251 254 262 269 275 282 286 286 284 280 277 274 269 265 262 263 266
227 243 249 243 234 227 222 226 232 229 223 222 224 225 225 228 232 229 228 232 229 219 209 217 246 257 235 221 223 222 216 218 215 208 232 242 222 204 213 220 226 236 241 245 252 256 254 253 258 265 272 278 281 285 288 286 281 276 271 267 264 263 263
219 226 238 239 236 232 225 224 231 232 227 225 227 227 225 229 231 227 226 233 235 232 226 216 226 248 240 223 225 225 220 220 217 216 231 231 207 201 208 213 223 233 237 242 250 255 256 255 259 264 268 272 277 281 285 287 281 277 276 273 268 264 261
226 229 236 239 238 238 234 230 228 228 227 226 227 227 225 229 233 229 226 231 234 237 237 229 223 236 241 228 219 219 222 223 220 221 233 232 210 204 205 208 220 229 234 241 247 252 254 254 255 260 264 269 274 276 281 286 281 275 274 273 268 264 263
234 237 238 238 237 237 241 239 230 223 224 227 228 227 227 230 234 233 230 229 227 223 231 236 232 236 241 228 212 212 220 224 225 228 236 236 222 211 206 208 216 224 231 236 242 248 252 251 251 255 260 265 269 273 279 283 280 274 269 266 263 261 262
234 233 229 231 233 228 233 243 239 228 223 224 226 228 229 230 233 238 238 236 233 227 222 223 232 243 247 233 216 215 220 224 228 231 234 233 228 218 210 210 216 221 225 229 235 242 248 250 250 252 257 262 266 271 276 279 278 273 266 263 261 260 263
238 230 225 227 229 224 224 232 237 236 231 225 225 229 232 231 231 236 239 240 241 239 231 219 217 233 247 246 230 221 223 227 230 231 231 230 227 221 213 212 216 220 223 225 230 237 243 245 248 252 256 260 265 268 272 276 276 271 265 263 262 261 265
239 233 227 227 226 224 230 233 232 235 237 235 231 231 233 235 234 236 237 239 242 245 241 233 222 218 233 251 244 228 225 229 227 225 227 227 224 222 219 214 214 218 224 227 230 235 239 242 247 253 255 258 262 265 269 272 272 269 266 262 259 259 262
236 236 230 229 229 225 228 234 233 231 234 237 237 236 234 234 236 237 238 239 241 242 243 243 237 226 221 231 239 232 227 226 223 222 224 224 224 225 224 219 215 216 222 229 234 237 239 243 248 252 253 254 258 261 264 268 268 267 263 256 252 252 256
233 235 232 230 234 232 228 229 230 228 230 233 235 236 237 235 237 240 239 239 241 241 240 243 244 240 233 232 238 242 236 226 220 222 225 225 227 229 228 225 221 216 219 228 236 240 242 244 247 248 249 251 253 255 259 263 264 262 257 250 247 249 257
230 233 234 231 234 236 234 234 233 226 224 230 234 236 238 239 240 243 243 242 243 244 243 243 247 249 247 242 240 244 247 241 232 228 228 228 230 232 232 230 226 219 217 225 233 239 242 243 244 246 248 248 248 251 256 259 259 258 254 249 249 254 260
228 229 233 231 231 233 235 240 240 229 222 224 231 237 242 242 241 243 248 249 248 247 246 246 248 250 251 248 242 240 243 246 244 239 233 230 231 233 233 230 224 217 216 224 231 235 239 240 241 244 246 245 246 251 256 257 258 260 259 257 259 262 263
227 227 229 229 230 233 236 239 240 235 227 221 222 229 236 240 241 240 243 248 252 252 250 249 251 252 250 249 247 242 239 240 244 243 236 229 229 234 234 229 222 216 215 223 230 232 235 237 240 243 245 245 247 252 257 261 264 268 270 273 275 273 270
225 225 227 228 229 232 235 237 235 232 228 222 219 221 224 228 234 237 238 240 244 252 254 250 249 251 252 250 248 247 243 239 241 243 239 232 229 233 235 228 218 213 215 222 227 228 232 236 239 242 244 247 250 254 259 264 268 272 275 279 281 280 279
224 224 226 228 230 231 230 230 230 229 228 226 225 226 228 228 226 228 234 238 238 241 246 244 241 247 256 254 247 244 242 241 241 242 240 236 232 233 233 225 212 207 213 220 223 226 231 237 240 242 245 248 252 256 260 265 269 272 275 278 279 280 282
224 224 226 226 227 229 228 226 229 231 230 229 229 232 236 236 228 223 226 231 234 235 239 243 246 250 255 252 245 241 240 241 242 242 240 237 234 233 232 225 214 208 212 219 222 225 231 237 240 243 247 250 253 257 261 264 267 270 274 276 277 278 281
223 224 226 226 226 228 229 230 232 235 235 235 237 239 240 239 233 228 228 229 231 232 235 241 246 250 251 247 242 240 240 241 242 242 240 238 235 233 230 225 216 210 213 219 222 225 230 235 239 243 247 251 255 258 259 261 264 267 271 274 275 278 280
222 223 225 226 228 230 231 232 235 239 240 242 247 249 247 242 237 234 236 237 234 234 236 239 242 245 246 245 242 241 241 242 242 240 237 234 230 229 228 224 217 212 214 219 222 224 228 234 239 244 249 254 257 258 258 259 262 265 268 272 274 276 278
221 223 225 226 230 232 231 232 237 241 242 242 243 244 246 247 244 242 241 241 240 238 240 242 244 246 246 243 241 238 235 236 239 239 234 229 224 222 222 221 217 214 214 218 222 224 228 233 238 243 249 254 256 256 257 259 261 263 267 271 272 273 274
223 225 228 230 233 234 233 234 239 242 244 242 239 240 244 246 248 248 245 244 244 243 243 245 248 248 248 243 236 232 228 228 230 230 226 221 217 216 217 218 216 214 214 217 222 225 228 232 236 240 245 250 253 254 256 257 260 263 266 268 269 269 269
225 227 230 232 234 235 235 237 238 240 244 245 243 244 245 241 241 245 247 246 246 246 246 249 250 252 251 245 237 234 232 227 222 218 217 214 212 212 215 217 216 215 215 218 222 227 230 232 235 240 244 247 250 253 255 258 261 263 264 264 264 263 264
227 229 231 232 233 236 238 240 240 241 244 248 246 243 242 239 239 241 242 243 244 245 245 246 248 252 254 252 248 246 241 232 222 215 212 211 212 213 216 217 217 216 218 220 223 227 230 233 238 242 246 249 252 254 256 258 260 261 263 263 262 261 262
228 229 231 231 233 235 237 239 242 243 244 244 242 240 239 238 239 239 237 237 240 243 242 239 238 243 251 256 257 251 242 234 225 215 208 209 213 215 218 220 220 219 220 222 224 227 231 235 239 243 247 250 254 256 257 259 261 262 263 264 263 263 264
223 226 228 230 231 233 236 239 243 245 244 242 240 240 240 241 241 239 234 232 236 242 243 241 239 241 246 249 248 243 235 228 223 214 208 208 212 215 219 222 222 221 222 223 225 227 231 236 240 244 247 250 254 256 258 259 260 260 260 261 262 265 267
222 224 227 229 231 234 237 239 242 245 245 244 242 241 241 242 242 238 232 230 235 240 241 240 241 243 244 243 240 238 232 224 219 215 210 209 211 215 218 220 221 221 222 223 225 228 233 237 241 245 249 252 254 256 256 256 257 258 259 260 262 264 266
222 224 226 228 232 236 238 239 240 244 246 245 243 240 240 239 239 238 234 232 236 239 237 236 238 241 244 242 234 228 223 217 214 215 213 212 214 217 218 219 221 222 223 224 227 231 235 239 243 246 249 251 252 253 254 255 256 258 259 260 261 263 265
223 225 227 229 232 236 237 238 241 244 246 247 245 242 239 238 238 239 235 232 237 239 236 234 236 240 242 238 228 221 219 214 211 212 214 215 218 218 218 220 221 222 224 226 229 232 235 238 241 244 246 248 249 250 251 254 259 263 265 265 265 265 267
221 224 225 227 230 233 234 236 239 240 242 246 248 245 242 240 240 239 234 231 235 240 237 233 233 235 235 230 223 222 222 217 212 213 217 220 222 221 220 221 222 223 224 226 228 231 235 237 240 242 243 245 247 250 253 260 268 273 273 272 270 268 270
216 219 220 222 225 227 230 233 236 237 241 246 247 246 245 244 242 239 235 229 227 230 233 232 230 226 224 223 222 222 222 217 213 216 220 222 223 224 223 223 223 224 225 227 229 232 234 236 239 241 243 245 249 254 260 266 270 271 271 269 267 268 272
209 215 220 222 224 225 227 231 234 236 240 244 244 244 244 243 241 238 236 232 227 223 224 228 228 223 220 222 223 221 216 210 207 208 212 215 218 220 221 222 223 223 224 226 227 230 233 236 240 243 247 250 254 259 263 265 266 268 268 267 267 269 272
209 215 221 222 221 222 225 229 232 236 239 241 241 240 240 240 240 236 231 230 229 225 223 224 226 224 223 224 222 213 206 203 203 204 205 206 209 212 214 216 218 220 222 224 227 231 235 240 244 247 251 254 258 261 263 264 265 267 267 267 269 271 273
Height
5829 5833 5837 5840 5843 5845 5847 5850 5852 5854 5859 5863 5867 5868 5870 5873 5872 5871 5873 5873 5872 5874 5875 5874 5874 5875 5877 5878 5880 5883 5886 5890 5888 5883 5885 5888 5889 5891 5892 5893 5894 5895 5896 5897 5898 5899 5899 5899 5900 5900 5900 5901 5901 5901 5902 5902 5903 5904 5904 5904 5904 5905 5905
5823 5826 5830 5833 5836 5841 5844 5845 5849 5855 5857 5858 5861 5864 5866 5867 5866 5867 5870 5871 5872 5872 5870 5872 5872 5872 5875 5877 5878 5881 5885 5887 5884 5881 5883 5885 5886 5888 5890 5890 5892 5893 5894 5895 5896 5897 5897 5897 5898 5898 5899 5899 5899 5899 5899 5900 5900 5901 5901 5901 5902 5902 5902
5819 5819 5824 5827 5829 5834 5839 5843 5847 5850 5848 5849 5854 5856 5858 5860 5861 5863 5866 5867 5870 5869 5867 5869 5870 5870 5873 5875 5875 5877 5881 5883 5881 5880 5881 5882 5882 5883 5886 5888 5889 5891 5893 5893 5895 5895 5896 5896 5896 5897 5897 5897 5897 5897 5897 5898 5898 5898 5899 5899 5900 5900 5900
5814 5814 5817 5822 5825 5828 5834 5839 5841 5842 5842 5846 5849 5849 5850 5855 5858 5860 5863 5864 5865 5866 5867 5867 5867 5868 5870 5871 5873 5875 5877 5881 5883 5880 5878 5880 5882 5882 5884 5887 5887 5889 5890 5891 5893 5893 5894 5894 5894 5895 5895 5895 5896 5896 5896 5896 5896 5896 5897 5897 5897 5898 5898
5808 5811 5813 5818 5822 5824 5826 5830 5832 5836 5838 5842 5845 5845 5847 5851 5854 5856 5859 5859 5859 5863 5868 5868 5865 5866 5867 5868 5872 5873 5874 5880 5885 5882 5877 5877 5881 5882 5882 5885 5886 5886 5888 5889 5890 5891 5891 5892 5893 5893 5893 5894 5894 5894 5894 5894 5894 5895 5895 5895 5895 5896 5896
5803 5808 5811 5814 5818 5819 5820 5823 5826 5831 5835 5837 5839 5841 5844 5846 5846 5850 5855 5856 5857 5861 5866 5866 5863 5863 5865 5867 5870 5872 5873 5878 5882 5882 5879 5876 5878 5880 5880 5882 5884 5884 5885 5886 5887 5888 5889 5890 5891 5891 5891 5892 5892 5892 5892 5893 5893 5893 5893 5893 5894 5894 5894
5802 5804 5806 5808 5811 5814 5816 5819 5822 5827 5830 5832 5834 5836 5839 5841 5841 5846 5850 5851 5854 5858 5862 5863 5860 5859 5862 5865 5867 5868 5870 5873 5875 5880 5880 5874 5874 5878 5878 5880 5882 5882 5883 5884 5884 5885 5887 5888 5889 5889 5889 5890 5891 5891 5891 5891 5891 5891 5891 5892 5892 5892 5893
5801 5802 5802 5803 5805 5808 5811 5813 5815 5819 5823 5826 5829 5832 5836 5837 5837 5841 5844 5844 5848 5853 5857 5859 5858 5856 5858 5861 5862 5863 5866 5869 5871 5876 5876 5871 5872 5876 5876 5878 5879 5880 5881 5881 5882 5883 5884 5885 5887 5887 5887 5888 5889 5889 5889 5889 5889 5889 5889 5890 5890 5890 5891
5796 5797 5797 5798 5799 5801 5805 5808 5809 5812 5818 5821 5824 5828 5832 5831 5830 5835 5839 5839 5843 5848 5851 5854 5856 5854 5852 5855 5857 5860 5863 5865 5868 5871 5869 5867 5871 5872 5873 5875 5877 5877 5878 5879 5880 5881 5882 5883 5884 5885 5885 5886 5887 5887 5887 5887 5887 5887 5887 5888 5888 5888 5889
5788 5790 5792 5793 5795 5797 5800 5803 5806 5809 5813 5815 5817 5822 5823 5821 5823 5829 5832 5834 5840 5845 5846 5849 5852 5849 5848 5851 5853 5857 5861 5862 5865 5867 5864 5865 5869 5869 5870 5872 5873 5874 5876 5877 5878 5879 5880 5881 5881 5882 5883 5883 5884 5885 5886 5886 5885 5885 5885 5886 5886 5887 5887
5784 5788 5791 5792 5794 5796 5796 5797 5801 5805 5808 5810 5812 5815 5815 5816 5820 5822 5823 5828 5835 5840 5842 5845 5848 5846 5844 5848 5851 5854 5857 5860 5861 5861 5860 5863 5866 5866 5867 5869 5869 5871 5872 5874 5875 5876 5877 5878 5879 5880 5880 5881 5882 5883 5883 5883 5883 5883 5883 5884 5885 5885 5885
5781 5785 5788 5789 5790 5793 5795 5795 5796 5799 5803 5806 5808 5808 5809 5814 5816 5815 5818 5823 5826 5831 5838 5842 5845 5844 5842 5844 5847 5851 5853 5855 5856 5856 5857 5860 5862 5862 5864 5865 5866 5867 5868 5870 5872 5872 5874 5875 5876 5877 5878 5878 5879 5880 5881 5881 5881 5881 5881 5882 5883 5883 5883
5776 5779 5782 5784 5785 5789 5793 5793 5792 5794 5797 5800 5802 5803 5805 5810 5810 5811 5816 5819 5818 5823 5830 5835 5839 5841 5841 5841 5842 5845 5848 5849 5851 5853 5854 5856 5858 5858 5859 5860 5862 5864 5865 5867 5868 5869 5870 5872 5872 5874 5874 5875 5876 5877 5878 5878 5878 5878 5879 5879 5880 5881 5881
5769 5773 5776 5779 5781 5784 5787 5787 5788 5791 5793 5794 5796 5798 5801 5804 5805 5807 5812 5814 5813 5817 5822 5827 5833 5837 5839 5839 5838 5839 5842 5844 5848 5850 5850 5851 5853 5854 5854 5856 5858 5859 5861 5863 5864 5865 5867 5868 5869 5870 5871 5872 5874 5874 5875 5875 5875 5875 5876 5877 5878 5878 5879
5763 5766 5771 5773 5774 5778 5781 5783 5785 5788 5790 5790 5791 5793 5796 5798 5799 5802 5806 5808 5808 5812 5815 5818 5824 5830 5832 5833 5834 5835 5837 5840 5843 5844 5844 5847 5849 5849 5850 5852 5853 5854 5857 5859 5861 5862 5864 5865 5866 5867 5868 5869 5870 5871 5872 5872 5872 5872 5873 5874 5875 5876 5877
5758 5761 5765 5767 5769 5772 5773 5776 5779 5783 5785 5787 5788 5789 5790 5791 5793 5795 5798 5799 5802 5807 5810 5810 5813 5820 5824 5827 5830 5831 5832 5836 5838 5839 5840 5843 5845 5846 5847 5848 5849 5850 5852 5855 5858 5860 5861 5862 5863 5864 5865 5866 5867 5868 5869 5869 5869 5870 5871 5872 5872 5873 5874
5754 5757 5760 5763 5766 5765 5764 5767 5771 5775 5778 5782 5784 5785 5786 5787 5789 5790 5790 5793 5797 5802 5805 5804 5805 5810 5814 5820 5825 5827 5828 5831 5833 5835 5838 5841 5843 5843 5844 5846 5846 5847 5848 5851 5854 5856 5857 5858 5859 5860 5862 5863 5864 5865 5865 5866 5867 5867 5868 5869 5870 5870 5870
5750 5753 5756 5758 5758 5756 5759 5764 5767 5769 5773 5777 5780 5782 5784 5785 5786 5786 5787 5790 5793 5796 5797 5798 5800 5803 5805 5811 5817 5822 5824 5825 5827 5830 5833 5837 5839 5839 5839 5842 5843 5843 5844 5847 5849 5852 5853 5854 5855 5856 5858 5859 5860 5861 5862 5863 5864 5865 5866 5866 5867 5867 5867
5745 5748 5750 5751 5750 5752 5757 5761 5763 5764 5766 5769 5771 5775 5780 5783 5784 5785 5787 5787 5789 5790 5791 5793 5795 5796 5798 5803 5809 5813 5817 5819 5821 5823 5827 5831 5834 5833 5834 5837 5840 5839 5840 5843 5845 5848 5849 5850 5851 5852 5854 5855 5856 5857 5859 5860 5861 5861 5862 5863 5863 5863 5863
5739 5742 5743 5743 5746 5750 5754 5755 5756 5756 5757 5759 5761 5763 5769 5775 5778 5780 5782 5784 5786 5787 5787 5789 5790 5789 5791 5797 5802 5805 5810 5814 5816 5817 5821 5825 5828 5827 5828 5832 5834 5835 5837 5839 5842 5844 5845 5845 5847 5848 5850 5851 5853 5854 5856 5857 5857 5858 5858 5859 5859 5859 5860
5733 5736 5738 5740 5743 5745 5747 5747 5747 5747 5749 5752 5754 5756 5761 5766 5770 5773 5775 5779 5782 5783 5784 5785 5785 5785 5786 5790 5795 5798 5803 5807 5809 5811 5814 5819 5821 5821 5823 5827 5828 5829 5832 5835 5837 5840 5840 5841 5842 5844 5846 5847 5849 5851 5852 5853 5854 5854 5855 5856 5856 5856 5856
5728 5731 5733 5735 5737 5738 5739 5740 5741 5743 5746 5748 5749 5752 5757 5761 5764 5765 5767 5769 5772 5776 5779 5778 5778 5780 5781 5782 5788 5793 5796 5799 5802 5803 5805 5810 5813 5815 5818 5822 5824 5825 5828 5831 5833 5836 5837 5837 5838 5840 5842 5844 5845 5847 5848 5849 5850 5851 5851 5852 5852 5852 5852
5722 5726 5727 5729 5731 5732 5734 5737 5738 5740 5743 5745 5748 5751 5754 5755 5757 5758 5758 5760 5762 5766 5770 5771 5772 5774 5774 5776 5782 5787 5790 5792 5795 5797 5800 5804 5807 5810 5813 5817 5819 5821 5824 5826 5828 5831 5832 5832 5834 5836 5838 5840 5842 5844 5845 5845 5846 5847 5847 5848 5848 5848 5848
5717 5720 5722 5724 5726 5728 5730 5733 5735 5736 5738 5742 5745 5747 5748 5749 5751 5752 5754 5756 5758 5760 5763 5764 5766 5767 5768 5772 5778 5781 5785 5787 5787 5790 5796 5799 5801 5804 5808 5812 5815 5817 5819 5821 5824 5827 5828 5829 5831 5832 5834 5836 5838 5839 5840 5841 5842 5843 5843 5844 5844 5844 5844
5713 5715 5717 5720 5722 5723 5725 5728 5730 5732 5735 5738 5739 5740 5743 5745 5747 5749 5751 5752 5754 5757 5758 5759 5761 5763 5765 5768 5772 5775 5778 5780 5781 5785 5791 5794 5796 5799 5803 5807 5810 5812 5815 5817 5820 5822 5823 5825 5827 5829 5830 5832 5833 5835 5836 5837 5837 5838 5839 5839 5839 5840 5840
5709 5711 5714 5716 5718 5719 5721 5723 5725 5728 5731 5732 5732 5735 5739 5741 5743 5745 5747 5749 5750 5752 5754 5755 5757 5760 5761 5762 5764 5767 5769 5771 5775 5780 5784 5788 5791 5794 5798 5802 5805 5808 5810 5812 5814 5816 5819 5821 5822 5824 5826 5827 5828 5830 5831 5831 5832 5833 5834 5834 5834 5834 5834
5704 5707 5709 5711 5713 5714 5715 5717 5720 5723 5725 5726 5729 5732 5734 5735 5737 5740 5742 5745 5747 5748 5750 5751 5753 5755 5756 5757 5758 5761 5763 5767 5770 5774 5778 5782 5786 5789 5793 5797 5800 5802 5805 5807 5809 5812 5814 5816 5817 5819 5821 5822 5823 5825 5825 5826 5827 5827 5828 5828 5828 5828 5828
5700 5703 5705 5706 5708 5709 5710 5712 5716 5719 5722 5723 5726 5728 5728 5729 5732 5735 5738 5740 5742 5744 5746 5746 5747 5749 5750 5751 5754 5757 5759 5762 5765 5768 5772 5777 5781 5785 5789 5791 5794 5797 5800 5803 5806 5808 5809 5812 5814 5815 5816 5818 5819 5820 5821 5822 5822 5822 5823 5823 5823 5823 5823
5694 5697 5699 5700 5701 5703 5705 5709 5712 5715 5717 5720 5721 5722 5723 5724 5727 5730 5733 5734 5737 5740 5741 5741 5742 5744 5745 5746 5748 5751 5753 5756 5760 5763 5767 5772 5776 5780 5783 5786 5789 5793 5796 5799 5801 5803 5806 5808 5809 5811 5812 5813 5814 5815 5816 5817 5817 5818 5818 5817 5817 5817 5818
5687 5690 5692 5693 5696 5698 5701 5705 5707 5708 5711 5715 5717 5718 5719 5720 5722 5725 5727 5729 5731 5735 5737 5737 5738 5740 5741 5742 5743 5745 5747 5751 5755 5758 5762 5766 5771 5775 5778 5782 5786 5789 5792 5794 5797 5799 5801 5803 5804 5805 5807 5808 5809 5810 5811 5812 5812 5812 5811 5811 5811 5812 5813
5681 5683 5686 5689 5692 5695 5697 5701 5703 5704 5707 5710 5712 5714 5715 5715 5717 5720 5723 5724 5726 5729 5732 5734 5735 5736 5737 5738 5739 5741 5744 5747 5751 5755 5758 5762 5766 5770 5774 5777 5780 5783 5786 5789 5791 5794 5796 5797 5799 5800 5801 5803 5804 5804 5805 5806 5806 5805 5805 5805 5805 5805 5806
5674 5678 5681 5684 5688 5691 5693 5697 5699 5701 5703 5705 5707 5709 5710 5712 5714 5716 5718 5719 5721 5723 5726 5728 5730 5732 5733 5734 5735 5737 5740 5743 5747 5751 5755 5759 5762 5765 5769 5772 5775 5778 5781 5783 5786 5789 5791 5793 5794 5796 5796 5797 5798 5799 5800 5801 5801 5800 5799 5798 5798 5799 5800
5671 5674 5677 5681 5685 5687 5689 5692 5695 5697 5699 5701 5703 5704 5705 5707 5709 5710 5712 5715 5716 5718 5721 5723 5726 5729 5730 5731 5732 5734 5736 5739 5743 5747 5751 5754 5757 5760 5764 5767 5770 5773 5776 5779 5781 5783 5785 5787 5789 5790 5791 5792 5793 5794 5796 5796 5796 5796 5794 5793 5793 5795 5794
5667 5670 5673 5677 5680 5682 5685 5688 5691 5693 5696 5698 5699 5699 5700 5702 5704 5706 5708 5710 5712 5714 5717 5720 5723 5725 5726 5727 5729 5731 5733 5736 5739 5742 5746 5749 5752 5756 5759 5761 5764 5767 5770 5773 5776 5778 5780 5781 5782 5784 5785 5787 5788 5790 5791 5791 5791 5790 5789 5788 5788 5789 5789
5664 5666 5669 5673 5675 5678 5682 5685 5687 5689 5691 5693 5694 5694 5696 5698 5700 5701 5703 5705 5707 5710 5713 5716 5719 5721 5722 5724 5727 5729 5731 5733 5735 5738 5742 5745 5748 5751 5754 5757 5760 5763 5765 5768 5770 5772 5774 5775 5777 5779 5781 5782 5783 5784 5785 5785 5785 5784 5784 5783 5783 5783 5783
5660 5663 5666 5669 5672 5675 5678 5680 5682 5685 5687 5687 5689 5691 5692 5693 5695 5697 5698 5700 5702 5704 5708 5712 5715 5717 5719 5721 5723 5726 5728 5730 5732 5735 5738 5741 5744 5747 5750 5752 5755 5757 5760 5762 5764 5766 5767 5769 5772 5774 5776 5777 5778 5778 5779 5779 5779 5778 5778 5777 5777 5777 5777
5656 5659 5663 5666 5669 5671 5674 5676 5678 5681 5682 5683 5685 5687 5688 5689 5690 5692 5694 5696 5698 5700 5704 5708 5711 5713 5716 5718 5719 5721 5724 5725 5727 5730 5733 5736 5739 5741 5744 5747 5749 5752 5754 5756 5758 5760 5762 5765 5767 5769 5771 5772 5772 5772 5772 5772 5772 5772 5772 5771 5771 5770 5770